Location: Long Geng
(2.6167°N, 114.1333°E)
Time: 19:19:23
(UTC+00:00)

Ariane 44LP R/B - Pass Details

Date: 20 September 2021
Orbit: 477 x 17832 km, 3.6° (Epoch: 18 October)

Event Time Altitude Azimuth Distance (km) Brightness Sun altitude
Rises 08:54:18 0° 271° (W) 18,995 12.7 20.7°
Reaches altitude 10° 09:26:30 10° 269° (W) 20,843 15.1 12.6°
Maximum altitude 12:25:37 75° 185° (S) 4,340 7.6 -32.1°
Enters shadow 12:32:13 49° 115° (ESE) 3,472 6.8 -33.8°
